Challis, ID

5:12 AM MDT on May 27, 2017 (GMT -0600)
Challis

Weather History for KLLJ - March, 2013

Change the Weather History Date:

Saturday, March 9, 2013

  Actual Average Record
Temperature  
Mean Temperature 32 °F 34 °F  
Max Temperature 46 °F 46 °F 68 °F (1972)
Min Temperature 18 °F 22 °F 2 °F (1922)
Degree Days  
Heating Degree Days 33 31  
Month to date heating degree days 292 296  
Since 1 July heating degree days 6000 6345  
Cooling Degree Days 0 0  
Month to date cooling degree days 0 0  
Year to date cooling degree days 0 0  
Moisture  
Dew Point 15 °F    
Average Humidity 51    
Maximum Humidity 74    
Minimum Humidity 27    
Precipitation  
Precipitation 0.00 in 0.02 in 0.23 in (2001)
Month to date precipitation 0.07 0.16  
Year to date precipitation 0.42 1.29  
Sea Level Pressure  
Sea Level Pressure 30.19 in    
Wind  
Wind Speed 4 mph (NNE)    
Max Wind Speed 15 mph    
Max Gust Speed 21 mph    
Visibility 10 miles    
Events      
T = Trace of Precipitation, MM = Missing Value Source: NWS Daily Summary

Daily Weather History Graph

Daily Weather History Graph

Search for Another Location

Airport or City:

Trip Planner

Search our weather history database for the weather conditions in past years. The results will help you decide how hot, cold, wet, or windy it might be!

Date:

Astronomy

Mar. 09, 2013 Rise Set
Actual Time 6:59 AM MST 6:35 PM MST
Civil Twilight 6:30 AM MST 7:04 PM MST
Nautical Twilight 5:56 AM MST 7:38 PM MST
Astronomical Twilight 5:22 AM MST 8:12 PM MST
Moon 5:30 AM MST (3/9) 4:39 PM MST (3/9)
Length of Visible Light 12h 34m
Length of Day
11h 36m
Waning Crescent, 5% of the Moon is Illuminated
Mar 9
Waning Crescent
Mar 11
New
Mar 19
First Quarter
Mar 27
Full
Apr 2
Last Quarter

Hourly Weather History & Observations

Time (MST) Temp. Windchill Dew Point Humidity Pressure Visibility Wind Dir Wind Speed Gust Speed Precip Events Conditions
12:55 AM 28.0 °F 18.6 °F 14.0 °F 56% 29.98 in 10.0 mi NW 10.4 mph - N/A   Clear
1:55 AM 27.0 °F 19.5 °F 15.1 °F 61% 29.99 in 10.0 mi NW 6.9 mph - N/A   Clear
2:55 AM 25.0 °F - 14.0 °F 63% 30.01 in 10.0 mi Calm Calm - N/A   Clear
3:55 AM 25.0 °F - 14.0 °F 63% 30.02 in 10.0 mi Calm Calm - N/A   Clear
4:55 AM 23.0 °F - 15.1 °F 72% 30.05 in 10.0 mi Calm Calm - N/A   Clear
5:55 AM 21.0 °F - 12.9 °F 71% 30.10 in 10.0 mi Calm Calm - N/A   Clear
6:55 AM 19.0 °F - 12.9 °F 77% 30.16 in 10.0 mi Calm Calm - N/A   Clear
7:55 AM 21.0 °F - 14.0 °F 74% 30.19 in 10.0 mi Calm Calm - N/A   Clear
8:55 AM 26.1 °F - 16.0 °F 66% 30.19 in 10.0 mi Calm Calm - N/A   Clear
9:55 AM 33.1 °F - 14.0 °F 46% 30.17 in 10.0 mi Calm Calm - N/A   Clear
10:55 AM 36.0 °F 31.1 °F 14.0 °F 41% 30.17 in 10.0 mi NNE 5.8 mph - N/A   Clear
11:55 AM 37.9 °F 30.9 °F 15.1 °F 39% 30.18 in 10.0 mi NNE 10.4 mph 18.4 mph N/A   Clear
12:55 PM 39.9 °F 33.4 °F 16.0 °F 38% 30.18 in 10.0 mi NE 10.4 mph 19.6 mph N/A   Clear
1:55 PM 42.1 °F 36.6 °F 15.1 °F 34% 30.17 in 10.0 mi NNE 9.2 mph - N/A   Clear
2:55 PM 44.1 °F 39.5 °F 15.1 °F 31% 30.17 in 10.0 mi NNE 8.1 mph - N/A   Clear
3:55 PM 45.0 °F 43.5 °F 12.0 °F 26% 30.19 in 10.0 mi NE 3.5 mph - N/A   Clear
4:55 PM 45.0 °F - 14.0 °F 29% 30.21 in 10.0 mi Calm Calm - N/A   Clear
5:55 PM 43.0 °F 40.3 °F 15.1 °F 32% 30.24 in 10.0 mi NE 4.6 mph - N/A   Clear
6:55 PM 36.0 °F 29.0 °F 17.1 °F 46% 30.30 in 10.0 mi North 9.2 mph - N/A   Clear
7:55 PM 34.0 °F 29.8 °F 16.0 °F 48% 30.33 in 10.0 mi North 4.6 mph - N/A   Clear
8:55 PM 33.1 °F 26.9 °F 17.1 °F 52% 30.35 in 10.0 mi NW 6.9 mph - N/A   Clear
9:55 PM 28.9 °F - 18.0 °F 64% 30.37 in 10.0 mi Calm Calm - N/A   Clear
10:55 PM 28.0 °F 22.8 °F 16.0 °F 61% 30.36 in 10.0 mi SE 4.6 mph - N/A   Clear
11:55 PM 25.0 °F - 15.1 °F 66% 30.37 in 10.0 mi Calm Calm - N/A   Clear